Weather History for KRNT - November, 2011

Change the Weather History Date:

Friday, November 4, 2011

  Actual Average Record
Temperature  
Mean Temperature 40 °F -  
Max Temperature 46 °F 53 °F 69 °F (2010)
Min Temperature 33 °F 39 °F 26 °F (2003)
Degree Days  
Heating Degree Days 26    
Moisture  
Dew Point 36 °F    
Average Humidity 90    
Maximum Humidity 100    
Minimum Humidity 71    
Precipitation  
Precipitation 0.00 in - - ()
Sea Level Pressure  
Sea Level Pressure 29.94 in    
Wind  
Wind Speed 1 mph (SSE)    
Max Wind Speed 6 mph    
Max Gust Speed -    
Visibility 7 miles    
Events Fog , Rain    
Averages and records for this station are not official NWS values.
T = Trace of Precipitation, MM = Missing Value Source: NWS Daily Summary

Daily Weather History Graph

Daily Weather History Graph

Search for Another Location

Airport or City:

Trip Planner

Search our weather history database for the weather conditions in past years. The results will help you decide how hot, cold, wet, or windy it might be!

Date:

Astronomy

Nov. 04, 2011 Rise Set
Actual Time 7:56 AM PDT 5:47 PM PDT
Civil Twilight 7:24 AM PDT 6:19 PM PDT
Nautical Twilight 6:47 AM PDT 6:56 PM PDT
Astronomical Twilight 6:12 AM PDT 7:31 PM PDT
Moon 3:01 PM PDT (11/4) 1:51 AM PDT (11/4)
Length of Visible Light 10h 55m
Length of Day
9h 50m
Waxing Gibbous, 70% of the Moon is Illuminated
Nov 4
Waxing Gibbous
Nov 10
Full
Nov 18
Last Quarter
Nov 24
New
Dec 2
First Quarter

Hourly Weather History & Observations

Time (PDT) Temp. Windchill Dew Point Humidity Pressure Visibility Wind Dir Wind Speed Gust Speed Precip Events Conditions
12:53 AM 37.4 °F - 35.6 °F 93% 29.91 in 10.0 mi Calm Calm - N/A   Clear
1:53 AM 36.0 °F - 34.0 °F 93% 29.93 in 9.0 mi Calm Calm - N/A   Clear
2:53 AM 35.1 °F - 34.0 °F 96% 29.93 in 1.8 mi Calm Calm - N/A   Partly Cloudy
2:57 AM 35.6 °F - 33.8 °F 93% 29.91 in 0.8 mi Calm Calm - N/A   Mist
3:09 AM 35.6 °F - 33.8 °F 93% 29.91 in 2.0 mi Calm Calm - N/A   Mostly Cloudy
3:17 AM 35.6 °F - 33.8 °F 93% 29.92 in 6.0 mi Calm Calm - N/A   Mostly Cloudy
3:32 AM 33.8 °F - 33.8 °F 100% 29.92 in 8.0 mi Calm Calm - N/A   Scattered Clouds
3:53 AM 34.0 °F - 33.1 °F 96% 29.93 in 9.0 mi Calm Calm - N/A   Clear
4:02 AM 33.8 °F - 33.8 °F 100% 29.92 in 9.0 mi Calm Calm - N/A   Scattered Clouds
4:10 AM 33.8 °F 30.8 °F 33.8 °F 100% 29.91 in 5.0 mi East 3.5 mph - N/A   Mostly Cloudy
4:26 AM 33.8 °F - 33.8 °F 100% 29.91 in 1.8 mi Calm Calm - N/A   Overcast
4:39 AM 33.8 °F - 33.8 °F 100% 29.91 in 0.5 mi Calm Calm - N/A Fog Fog
4:53 AM 34.0 °F 31.0 °F 34.0 °F 100% 29.94 in 0.2 mi ESE 3.5 mph - N/A Fog Fog
5:53 AM 34.0 °F - 34.0 °F 100% 29.94 in 0.5 mi Calm Calm - N/A Fog Fog
6:30 AM 33.8 °F - 33.8 °F 100% 29.93 in 2.0 mi Calm Calm - N/A   Overcast
6:39 AM 33.8 °F - 33.8 °F 100% 29.94 in 1.5 mi Calm Calm - N/A   Overcast
6:53 AM 34.0 °F - 34.0 °F 100% 29.96 in 2.5 mi Calm Calm - N/A   Overcast
7:19 AM 33.8 °F 30.8 °F 33.8 °F 100% 29.94 in 8.0 mi SSE 3.5 mph - N/A   Overcast
7:53 AM 35.1 °F - 34.0 °F 96% 29.97 in 8.0 mi Calm Calm - N/A   Overcast
8:53 AM 36.0 °F - 35.1 °F 97% 29.98 in 7.0 mi Calm Calm - N/A   Overcast
9:40 AM 37.4 °F 34.9 °F 35.6 °F 93% 29.95 in 8.0 mi South 3.5 mph - N/A   Overcast
9:53 AM 37.9 °F 35.5 °F 36.0 °F 93% 29.97 in 7.0 mi SSE 3.5 mph - N/A   Overcast
10:48 AM 39.2 °F 37.0 °F 37.4 °F 93% 29.96 in 8.0 mi SSE 3.5 mph - N/A   Overcast
10:53 AM 39.9 °F 37.8 °F 37.0 °F 89% 29.97 in 8.0 mi SSE 3.5 mph - N/A   Overcast
11:53 AM 44.1 °F 42.5 °F 37.9 °F 79% 29.99 in 10.0 mi NW 3.5 mph - N/A   Mostly Cloudy
12:00 PM 44.6 °F 42.2 °F 37.4 °F 76% 29.97 in 10.0 mi Variable 4.6 mph - N/A   Mostly Cloudy
12:42 PM 44.6 °F - 37.4 °F 76% 29.96 in 9.0 mi Calm Calm - 0.00 in Rain Light Rain
12:53 PM 44.1 °F 40.8 °F 37.9 °F 79% 29.97 in 10.0 mi NNW 5.8 mph - 0.00 in   Overcast
1:53 PM 44.1 °F - 37.0 °F 76% 29.97 in 10.0 mi Calm Calm - 0.00 in Rain Light Rain
2:03 PM 44.6 °F - 37.4 °F 76% 29.95 in 10.0 mi Calm Calm - 0.00 in   Overcast
2:49 PM 44.6 °F - 37.4 °F 76% 29.95 in 10.0 mi Calm Calm - 0.00 in Rain Light Rain
2:53 PM 44.1 °F - 37.0 °F 76% 29.96 in 10.0 mi Calm Calm - 0.00 in Rain Light Rain
3:53 PM 45.0 °F - 37.0 °F 74% 29.95 in 10.0 mi Calm Calm - 0.00 in   Overcast
4:00 PM 46.4 °F - 37.4 °F 71% 29.94 in 10.0 mi Calm Calm - N/A   Overcast
4:53 PM 46.0 °F 44.8 °F 39.0 °F 76% 29.96 in 10.0 mi SSE 3.5 mph - N/A   Overcast
5:53 PM 44.1 °F - 37.9 °F 79% 29.96 in 10.0 mi Calm Calm - N/A   Overcast
6:53 PM 42.1 °F 40.2 °F 39.0 °F 89% 29.96 in 10.0 mi SSE 3.5 mph - N/A   Mostly Cloudy
7:53 PM 41.0 °F - 37.9 °F 89% 29.96 in 10.0 mi Calm Calm - N/A   Overcast
8:53 PM 41.0 °F 39.0 °F 37.9 °F 89% 29.95 in 10.0 mi South 3.5 mph - N/A   Overcast
9:53 PM 39.9 °F - 37.0 °F 89% 29.93 in 10.0 mi Calm Calm - N/A   Mostly Cloudy
10:53 PM 39.9 °F - 37.0 °F 89% 29.92 in 10.0 mi Calm Calm - N/A   Mostly Cloudy
11:53 PM 37.9 °F - 36.0 °F 93% 29.91 in 10.0 mi Calm Calm - N/A   Clear